LAN108 SCEL-SCSE

Flight info

Callsign LAN108
Flight time 0h 44m
Altitude 30000
Route DONTI5B DONTI UQ802 KUGAP KUGAP5
Aircraft A320/M-SDE3FGHIRWY/LB1

Departure

Time 2026-04-23 15:25
Airport Comodoro Arturo Merino Benítez International Airport (SCEL)

Arrival

Time 2026-04-23 16:09
Airport La Florida Airport (SCSE)
Time Latitude Longitude Altitude Speed Heading
2026-04-23 14:54 -33.39595 -70.79294 1564 ft 0 kts 175°
2026-04-23 15:07 -33.39576 -70.79295 1591 ft 4 kts 178°
2026-04-23 15:08 -33.39549 -70.79296 1564 ft 4 kts 179°
2026-04-23 15:08 -33.39527 -70.79297 1564 ft 4 kts 186°
2026-04-23 15:08 -33.39508 -70.79285 1564 ft 4 kts 250°
2026-04-23 15:09 -33.39503 -70.79256 1564 ft 0 kts 267°
2026-04-23 15:11 -33.39503 -70.79263 1564 ft 2 kts 267°
2026-04-23 15:11 -33.39505 -70.79295 1564 ft 5 kts 268°
2026-04-23 15:12 -33.39507 -70.79353 1564 ft 8 kts 266°
2026-04-23 15:12 -33.39510 -70.79420 1564 ft 7 kts 266°
2026-04-23 15:12 -33.39512 -70.79473 1564 ft 6 kts 268°
2026-04-23 15:12 -33.39514 -70.79515 1564 ft 4 kts 268°
2026-04-23 15:13 -33.39515 -70.79545 1564 ft 3 kts 267°
2026-04-23 15:13 -33.39515 -70.79564 1564 ft 2 kts 267°
2026-04-23 15:13 -33.39516 -70.79575 1564 ft 1 kts 266°
2026-04-23 15:13 -33.39517 -70.79590 1564 ft 3 kts 266°
2026-04-23 15:14 -33.39518 -70.79626 1564 ft 6 kts 267°
2026-04-23 15:14 -33.39520 -70.79674 1564 ft 5 kts 267°
2026-04-23 15:14 -33.39522 -70.79710 1564 ft 4 kts 267°
2026-04-23 15:14 -33.39523 -70.79739 1565 ft 5 kts 267°
2026-04-23 15:15 -33.39526 -70.79795 1565 ft 9 kts 267°
2026-04-23 15:15 -33.39523 -70.79861 1565 ft 8 kts 297°
2026-04-23 15:15 -33.39459 -70.79883 1565 ft 12 kts 357°
2026-04-23 15:15 -33.39366 -70.79889 1565 ft 13 kts 343°
2026-04-23 15:16 -33.39333 -70.79988 1565 ft 15 kts 294°
2026-04-23 15:16 -33.39242 -70.80060 1566 ft 18 kts 351°
2026-04-23 15:16 -33.39102 -70.80067 1566 ft 21 kts 357°
2026-04-23 15:16 -33.38949 -70.80076 1567 ft 23 kts 357°
2026-04-23 15:17 -33.38791 -70.80084 1567 ft 21 kts 357°
2026-04-23 15:17 -33.38673 -70.80091 1567 ft 13 kts 357°
2026-04-23 15:17 -33.38587 -70.80096 1567 ft 11 kts 358°
2026-04-23 15:17 -33.38513 -70.80099 1567 ft 10 kts 358°
2026-04-23 15:18 -33.38451 -70.80103 1567 ft 8 kts 357°
2026-04-23 15:18 -33.38396 -70.80106 1566 ft 7 kts 358°
2026-04-23 15:18 -33.38349 -70.80108 1566 ft 6 kts 358°
2026-04-23 15:18 -33.38309 -70.80110 1566 ft 5 kts 357°
2026-04-23 15:19 -33.38278 -70.80112 1566 ft 4 kts 357°
2026-04-23 15:19 -33.38255 -70.80113 1566 ft 4 kts 357°
2026-04-23 15:19 -33.38205 -70.80116 1566 ft 11 kts 358°
2026-04-23 15:19 -33.38106 -70.80121 1566 ft 16 kts 357°
2026-04-23 15:20 -33.38030 -70.80126 1566 ft 17 kts 357°
2026-04-23 15:20 -33.37866 -70.80135 1566 ft 18 kts 357°
2026-04-23 15:20 -33.37737 -70.80141 1566 ft 19 kts 358°
2026-04-23 15:20 -33.37598 -70.80147 1566 ft 21 kts 358°
2026-04-23 15:21 -33.37451 -70.80155 1567 ft 22 kts 358°
2026-04-23 15:21 -33.37295 -70.80163 1567 ft 23 kts 356°
2026-04-23 15:21 -33.37196 -70.80168 1567 ft 11 kts 358°
2026-04-23 15:21 -33.37132 -70.80190 1567 ft 9 kts 322°
2026-04-23 15:22 -33.37108 -70.80237 1569 ft 4 kts 288°
2026-04-23 15:22 -33.37104 -70.80260 1570 ft 2 kts 277°
2026-04-23 15:22 -33.37104 -70.80290 1572 ft 6 kts 265°
2026-04-23 15:22 -33.37124 -70.80347 1574 ft 7 kts 233°
2026-04-23 15:23 -33.37163 -70.80374 1574 ft 6 kts 194°
2026-04-23 15:23 -33.37204 -70.80374 1573 ft 6 kts 177°
2026-04-23 15:23 -33.37207 -70.80374 1573 ft 0 kts 177°
2026-04-23 15:24 -33.37310 -70.80367 1573 ft 46 kts 177°
2026-04-23 15:24 -33.37860 -70.80338 1573 ft 112 kts 177°
2026-04-23 15:24 -33.38822 -70.80286 1575 ft 162 kts 177°
2026-04-23 15:24 -33.39990 -70.80239 2112 ft 166 kts 178°
2026-04-23 15:25 -33.41149 -70.80173 2829 ft 169 kts 177°
2026-04-23 15:25 -33.42380 -70.80097 3227 ft 188 kts 177°
2026-04-23 15:25 -33.43764 -70.80011 3517 ft 210 kts 177°
2026-04-23 15:25 -33.45295 -70.79919 3870 ft 230 kts 177°
2026-04-23 15:26 -33.46971 -70.80015 4231 ft 254 kts 198°
2026-04-23 15:26 -33.48438 -70.81254 4861 ft 268 kts 234°
2026-04-23 15:26 -33.49058 -70.83359 5661 ft 274 kts 268°
2026-04-23 15:26 -33.48874 -70.85631 6572 ft 276 kts 283°
2026-04-23 15:27 -33.48459 -70.87879 7441 ft 278 kts 284°
2026-04-23 15:27 -33.48031 -70.90143 8284 ft 280 kts 284°
2026-04-23 15:27 -33.47593 -70.92446 8809 ft 285 kts 284°
2026-04-23 15:27 -33.47251 -70.94781 8953 ft 285 kts 278°
2026-04-23 15:28 -33.46858 -70.97059 8979 ft 282 kts 295°
2026-04-23 15:28 -33.45698 -70.98917 9082 ft 284 kts 325°
2026-04-23 15:28 -33.43894 -70.99891 9926 ft 285 kts 341°
2026-04-23 15:28 -33.41980 -71.00656 10468 ft 301 kts 341°
2026-04-23 15:29 -33.39918 -71.01467 10761 ft 321 kts 341°
2026-04-23 15:29 -33.37762 -71.02314 11366 ft 329 kts 341°
2026-04-23 15:29 -33.35571 -71.03172 12099 ft 333 kts 341°
2026-04-23 15:29 -33.33353 -71.04040 12842 ft 337 kts 341°
2026-04-23 15:30 -33.31115 -71.04918 13595 ft 340 kts 341°
2026-04-23 15:30 -33.28854 -71.05804 14294 ft 344 kts 341°
2026-04-23 15:30 -33.26567 -71.06699 14936 ft 348 kts 341°
2026-04-23 15:30 -33.24249 -71.07604 15547 ft 352 kts 340°
2026-04-23 15:31 -33.21907 -71.08519 16188 ft 355 kts 340°
2026-04-23 15:31 -33.19547 -71.09442 16872 ft 358 kts 340°
2026-04-23 15:31 -33.17168 -71.10371 17524 ft 361 kts 340°
2026-04-23 15:31 -33.14768 -71.11307 18159 ft 364 kts 340°
2026-04-23 15:32 -33.12344 -71.12253 18719 ft 368 kts 339°
2026-04-23 15:32 -33.09900 -71.13204 19266 ft 371 kts 339°
2026-04-23 15:32 -33.07436 -71.14159 19800 ft 373 kts 339°
2026-04-23 15:32 -33.04956 -71.15123 20328 ft 376 kts 339°
2026-04-23 15:33 -33.02464 -71.16094 20894 ft 378 kts 339°
2026-04-23 15:33 -32.99952 -71.17073 21408 ft 381 kts 339°
2026-04-23 15:33 -32.97423 -71.18057 21908 ft 384 kts 339°
2026-04-23 15:33 -32.94850 -71.18825 22396 ft 390 kts 348°
2026-04-23 15:34 -32.92120 -71.19055 22907 ft 396 kts 356°
2026-04-23 15:34 -32.89353 -71.19099 23411 ft 399 kts 355°
2026-04-23 15:34 -32.86567 -71.19153 23874 ft 401 kts 355°
2026-04-23 15:34 -32.83766 -71.19212 24282 ft 404 kts 355°
2026-04-23 15:35 -32.80948 -71.19272 24694 ft 406 kts 355°
2026-04-23 15:35 -32.78116 -71.19326 25099 ft 408 kts 355°
2026-04-23 15:35 -32.75266 -71.19376 25499 ft 410 kts 355°
2026-04-23 15:35 -32.72408 -71.19425 25909 ft 412 kts 355°
2026-04-23 15:36 -32.69531 -71.19475 26306 ft 413 kts 355°
2026-04-23 15:36 -32.66644 -71.19528 26701 ft 415 kts 355°
2026-04-23 15:36 -32.63787 -71.19582 27095 ft 417 kts 355°
2026-04-23 15:36 -32.60881 -71.19637 27480 ft 418 kts 355°
2026-04-23 15:37 -32.57958 -71.19692 27855 ft 420 kts 355°
2026-04-23 15:37 -32.55025 -71.19750 28226 ft 422 kts 355°
2026-04-23 15:37 -32.53034 -71.19788 28484 ft 424 kts 355°
2026-04-23 15:37 -32.49113 -71.19858 28957 ft 427 kts 355°
2026-04-23 15:38 -32.46136 -71.19909 29311 ft 428 kts 355°
2026-04-23 15:38 -32.43149 -71.19960 29658 ft 430 kts 355°
2026-04-23 15:38 -32.40147 -71.20016 30002 ft 432 kts 354°
2026-04-23 15:38 -32.37139 -71.20074 30147 ft 430 kts 355°
2026-04-23 15:39 -32.34202 -71.20125 30162 ft 415 kts 354°
2026-04-23 15:39 -32.28495 -71.20222 30160 ft 407 kts 354°
2026-04-23 15:40 -32.22846 -71.20320 30156 ft 403 kts 353°
2026-04-23 15:40 -32.17246 -71.20425 30158 ft 402 kts 353°
2026-04-23 15:41 -32.11657 -71.20539 30149 ft 401 kts 353°
2026-04-23 15:41 -32.06107 -71.20645 30154 ft 401 kts 353°
2026-04-23 15:42 -32.00526 -71.20745 30145 ft 401 kts 353°
2026-04-23 15:42 -31.95898 -71.20827 30146 ft 399 kts 353°
2026-04-23 15:43 -31.90346 -71.20924 30157 ft 398 kts 353°
2026-04-23 15:43 -31.84796 -71.21018 30153 ft 398 kts 353°
2026-04-23 15:44 -31.79270 -71.21114 30144 ft 396 kts 353°
2026-04-23 15:44 -31.73733 -71.21018 30116 ft 399 kts 356°
2026-04-23 15:45 -31.68183 -71.20620 30140 ft 400 kts 357°
2026-04-23 15:45 -31.62636 -71.20199 30145 ft 398 kts 356°
2026-04-23 15:45 -31.59882 -71.20014 29947 ft 393 kts 356°
2026-04-23 15:46 -31.57172 -71.19842 29666 ft 388 kts 356°
2026-04-23 15:46 -31.54490 -71.19679 29351 ft 382 kts 356°
2026-04-23 15:46 -31.51847 -71.19522 28893 ft 378 kts 356°
2026-04-23 15:46 -31.49240 -71.19368 28448 ft 373 kts 356°
2026-04-23 15:47 -31.46663 -71.19217 27991 ft 368 kts 356°
2026-04-23 15:47 -31.44118 -71.19066 27589 ft 363 kts 356°
2026-04-23 15:47 -31.41606 -71.18915 27164 ft 359 kts 356°
2026-04-23 15:47 -31.39123 -71.18765 26759 ft 355 kts 356°
2026-04-23 15:48 -31.36667 -71.18616 26342 ft 352 kts 356°
2026-04-23 15:48 -31.34231 -71.18470 25962 ft 349 kts 356°
2026-04-23 15:48 -31.31815 -71.18325 25554 ft 346 kts 356°
2026-04-23 15:48 -31.29422 -71.18183 25151 ft 343 kts 356°
2026-04-23 15:49 -31.27044 -71.18043 24746 ft 341 kts 357°
2026-04-23 15:49 -31.24674 -71.17901 24328 ft 340 kts 357°
2026-04-23 15:49 -31.22345 -71.17760 23924 ft 339 kts 357°
2026-04-23 15:49 -31.19989 -71.17617 23446 ft 338 kts 357°
2026-04-23 15:50 -31.17649 -71.17475 23021 ft 335 kts 357°
2026-04-23 15:50 -31.15327 -71.17332 22598 ft 333 kts 358°
2026-04-23 15:50 -31.13021 -71.17194 22175 ft 331 kts 358°
2026-04-23 15:50 -31.10728 -71.17059 21754 ft 329 kts 358°
2026-04-23 15:51 -31.08451 -71.16922 21348 ft 327 kts 358°
2026-04-23 15:51 -31.06186 -71.16784 20939 ft 325 kts 358°
2026-04-23 15:51 -31.03928 -71.16646 20531 ft 324 kts 359°
2026-04-23 15:51 -31.01684 -71.16513 20125 ft 323 kts 359°
2026-04-23 15:52 -30.99440 -71.16383 19719 ft 322 kts 359°
2026-04-23 15:52 -30.97201 -71.16252 19318 ft 323 kts 359°
2026-04-23 15:52 -30.94954 -71.16121 18923 ft 327 kts 359°
2026-04-23 15:52 -30.92647 -71.15986 18552 ft 334 kts 360°
2026-04-23 15:53 -30.90325 -71.15848 18142 ft 334 kts 360°
2026-04-23 15:53 -30.88012 -71.15707 17761 ft 332 kts
2026-04-23 15:53 -30.85716 -71.15569 17385 ft 330 kts
2026-04-23 15:53 -30.83436 -71.15432 17014 ft 327 kts
2026-04-23 15:54 -30.81170 -71.15294 16630 ft 325 kts
2026-04-23 15:54 -30.78919 -71.15160 16261 ft 323 kts
2026-04-23 15:54 -30.76687 -71.15028 15898 ft 320 kts
2026-04-23 15:54 -30.74470 -71.14897 15544 ft 318 kts
2026-04-23 15:55 -30.72267 -71.14766 15193 ft 316 kts
2026-04-23 15:55 -30.70078 -71.14633 14821 ft 315 kts
2026-04-23 15:55 -30.67899 -71.14499 14476 ft 313 kts
2026-04-23 15:55 -30.65729 -71.14368 14121 ft 311 kts
2026-04-23 15:56 -30.63569 -71.14239 13759 ft 310 kts
2026-04-23 15:56 -30.61424 -71.14110 13389 ft 307 kts
2026-04-23 15:56 -30.59298 -71.13981 13032 ft 304 kts
2026-04-23 15:56 -30.57198 -71.13856 12701 ft 301 kts
2026-04-23 15:57 -30.55120 -71.13731 12362 ft 298 kts
2026-04-23 15:57 -30.53059 -71.13610 12021 ft 295 kts
2026-04-23 15:57 -30.51017 -71.13491 11692 ft 293 kts
2026-04-23 15:57 -30.48992 -71.13372 11361 ft 290 kts
2026-04-23 15:58 -30.46982 -71.13253 11035 ft 288 kts
2026-04-23 15:58 -30.44981 -71.13136 10708 ft 287 kts
2026-04-23 15:58 -30.43040 -71.13022 10551 ft 278 kts
2026-04-23 15:58 -30.41144 -71.12907 10429 ft 268 kts
2026-04-23 15:59 -30.39314 -71.12795 10283 ft 259 kts
2026-04-23 15:59 -30.37534 -71.12687 10040 ft 255 kts
2026-04-23 15:59 -30.35771 -71.12582 9719 ft 253 kts
2026-04-23 15:59 -30.34011 -71.12478 9336 ft 253 kts
2026-04-23 16:00 -30.32247 -71.12377 8941 ft 254 kts
2026-04-23 16:00 -30.30482 -71.12276 8611 ft 255 kts
2026-04-23 16:00 -30.28708 -71.12174 8328 ft 257 kts
2026-04-23 16:00 -30.26918 -71.12069 8028 ft 257 kts
2026-04-23 16:01 -30.25129 -71.11962 7765 ft 257 kts
2026-04-23 16:01 -30.23343 -71.11848 7480 ft 258 kts
2026-04-23 16:01 -30.21559 -71.11704 7199 ft 257 kts
2026-04-23 16:01 -30.19774 -71.11548 6916 ft 258 kts
2026-04-23 16:02 -30.17981 -71.11388 6626 ft 259 kts
2026-04-23 16:02 -30.16209 -71.11228 6337 ft 258 kts
2026-04-23 16:02 -30.14429 -71.11070 6053 ft 254 kts
2026-04-23 16:02 -30.12691 -71.10874 5769 ft 247 kts 11°
2026-04-23 16:03 -30.11092 -71.10213 5497 ft 242 kts 28°
2026-04-23 16:03 -30.09693 -71.09231 5245 ft 230 kts 30°
2026-04-23 16:03 -30.08347 -71.08286 4990 ft 222 kts 30°
2026-04-23 16:03 -30.07039 -71.07373 4739 ft 218 kts 30°
2026-04-23 16:04 -30.05748 -71.06473 4480 ft 215 kts 30°
2026-04-23 16:04 -30.04465 -71.05580 4237 ft 216 kts 30°
2026-04-23 16:04 -30.03104 -71.04857 3954 ft 214 kts 15°
2026-04-23 16:04 -30.01661 -71.04603 3702 ft 207 kts 359°
2026-04-23 16:05 -30.00724 -71.04683 3547 ft 200 kts 349°
2026-04-23 16:05 -29.99041 -71.05335 3201 ft 187 kts 331°
2026-04-23 16:05 -29.97994 -71.06171 2973 ft 179 kts 317°
2026-04-23 16:05 -29.97176 -71.07215 2749 ft 173 kts 304°
2026-04-23 16:06 -29.96598 -71.08394 2530 ft 167 kts 296°
2026-04-23 16:06 -29.96093 -71.09587 2320 ft 164 kts 296°
2026-04-23 16:06 -29.95605 -71.10726 2130 ft 152 kts 296°
2026-04-23 16:06 -29.95147 -71.11789 1910 ft 145 kts 296°
2026-04-23 16:07 -29.94704 -71.12819 1704 ft 142 kts 296°
2026-04-23 16:07 -29.94272 -71.13825 1511 ft 139 kts 295°
2026-04-23 16:07 -29.93847 -71.14814 1327 ft 135 kts 296°
2026-04-23 16:07 -29.93432 -71.15778 1134 ft 133 kts 295°
2026-04-23 16:08 -29.93024 -71.16723 962 ft 131 kts 295°
2026-04-23 16:08 -29.92623 -71.17656 792 ft 129 kts 295°
2026-04-23 16:08 -29.92233 -71.18575 632 ft 127 kts 294°
2026-04-23 16:08 -29.91843 -71.19481 478 ft 120 kts 295°
2026-04-23 16:09 -29.91566 -71.20135 475 ft 50 kts 296°
2026-04-23 16:09 -29.91516 -71.20249 476 ft 1 kts 295°
2026-04-23 16:09 -29.91516 -71.20252 476 ft 1 kts 281°
2026-04-23 16:09 -29.91540 -71.20270 477 ft 8 kts 202°
2026-04-23 16:10 -29.91595 -71.20299 478 ft 11 kts 207°
2026-04-23 16:10 -29.91627 -71.20318 480 ft 6 kts 207°
2026-04-23 16:10 -29.91659 -71.20335 480 ft 3 kts 205°
2026-04-23 16:10 -29.91667 -71.20340 477 ft 0 kts 206°